Location: Cedar Brake
(32.2526°N, 97.8459°W)
Time: 16:59:33
(UTC+00:00)

Cosmos 2297 Rocket - Pass Details

Date: 22 April 2026
Orbit: 840 x 841 km, 71.0° (Epoch: 8 May)

Event Time Altitude Azimuth Distance (km) Brightness Sun altitude
Exits shadow 10:34:57 14° 198° (SSW) 2,163 3.9 -16.5°
Maximum altitude 10:39:49 88° 108° (ESE) 844 2.2 -15.6°
Drops below altitude 10° 10:45:29 10° 21° (NNE) 2,458 5.3 -14.5°
Sets 10:47:55 0° 21° (NNE) 3,396 6.1 -14.0°
